TimeADT,TemperatureF,Dew PointF,Humidity,Sea Level PressureIn,VisibilityMPH,Wind Direction,Wind SpeedMPH,Gust SpeedMPH,PrecipitationIn,Events,Conditions,WindDirDegrees,DateUTC
12:00 AM,37.4,35.6,93,30.06,6.0,North,12.7,24.2,N/A,,Light Drizzle,350,2013-05-18 03:00:00
1:00 AM,37.4,35.6,93,30.06,6.0,North,9.2,20.7,N/A,,Light Drizzle,350,2013-05-18 04:00:00
1:20 AM,37.4,35.6,93,30.06,10.0,NNW,11.5,20.7,N/A,Rain,Light Rain Showers,340,2013-05-18 04:20:00
2:00 AM,37.4,35.6,93,30.06,8.0,North,11.5,18.4,N/A,Rain,Light Rain Showers,350,2013-05-18 05:00:00
3:00 AM,37,36,96,30.07,5,North,12.7,,,Rain,Light Rain,350,2013-05-18 06:00:00
3:00 AM,37.4,35.6,93,30.07,5.0,North,12.7,20.7,N/A,Rain,Light Rain,350,2013-05-18 06:00:00
4:00 AM,37.4,35.6,93,30.08,5.0,North,12.7,21.9,N/A,Rain,Light Rain,350,2013-05-18 07:00:00
5:00 AM,37.4,35.6,93,30.10,5.0,North,15.0,21.9,N/A,Rain,Light Rain,360,2013-05-18 08:00:00
6:00 AM,35.6,35.6,100,30.13,10.0,North,12.7,21.9,N/A,Rain,Light Rain,350,2013-05-18 09:00:00
7:00 AM,35.6,35.6,100,30.16,10.0,North,17.3,24.2,N/A,Rain,Light Rain,10,2013-05-18 10:00:00
7:05 AM,35.6,35.6,100,30.16,8.0,North,13.8,24.2,N/A,Rain,Light Rain,360,2013-05-18 10:05:00
7:15 AM,35.6,35.6,100,30.17,8.0,North,16.1,26.5,N/A,Rain-Snow,Light Rain,10,2013-05-18 10:15:00
8:00 AM,35.6,35.6,100,30.18,8.0,North,16.1,21.9,N/A,Rain-Snow,Light Rain,350,2013-05-18 11:00:00
9:00 AM,36,35,96,30.20,7,North,17.3,,,Snow,Light Snow,0,2013-05-18 12:00:00
9:00 AM,35.6,35.6,100,30.20,8.0,North,17.3,26.5,N/A,Rain-Snow,Light Rain,360,2013-05-18 12:00:00
10:00 AM,35.6,33.8,93,30.22,6.0,North,17.3,24.2,N/A,Rain-Snow,Light Rain,10,2013-05-18 13:00:00
11:00 AM,35.6,33.8,93,30.25,3.0,North,20.7,29.9,N/A,Rain-Snow,Light Rain,10,2013-05-18 14:00:00
11:49 AM,35.6,35.6,100,30.26,6.0,North,17.3,29.9,N/A,Rain,Light Rain,10,2013-05-18 14:49:00
12:00 PM,37.4,35.6,93,30.27,6.0,North,19.6,28.8,N/A,Rain,Light Rain,360,2013-05-18 15:00:00
12:14 PM,37.4,35.6,93,30.27,8.0,North,16.1,32.2,N/A,Rain-Snow,Light Rain,10,2013-05-18 15:14:00
1:00 PM,35.6,35.6,100,30.28,6.0,North,19.6,29.9,N/A,Rain-Snow,Light Rain,360,2013-05-18 16:00:00
2:00 PM,35.6,33.8,93,30.29,5.0,North,20.7,28.8,N/A,Snow,Light Snow,360,2013-05-18 17:00:00
2:30 PM,37.4,35.6,93,30.29,8.0,North,18.4,29.9,N/A,Rain-Snow,Light Rain,360,2013-05-18 17:30:00
3:00 PM,36,35,92,30.30,7,North,18.4,,,Snow,Light Snow,0,2013-05-18 18:00:00
3:00 PM,35.6,33.8,93,30.30,8.0,North,18.4,31.1,N/A,,Overcast,350,2013-05-18 18:00:00
4:00 PM,35.6,33.8,93,30.30,10.0,North,16.1,29.9,N/A,Rain-Snow,Light Rain,360,2013-05-18 19:00:00
5:00 PM,35.6,32.0,87,30.32,10.0,North,15.0,24.2,N/A,Rain-Snow,Light Rain,360,2013-05-18 20:00:00
6:00 PM,35.6,33.8,93,30.33,10.0,North,12.7,27.6,N/A,Snow,Light Snow,360,2013-05-18 21:00:00
7:00 PM,35.6,32.0,87,30.35,12.0,North,13.8,24.2,N/A,Snow,Light Snow,10,2013-05-18 22:00:00
8:00 PM,35.6,30.2,81,30.36,15.0,North,15.0,21.9,N/A,Snow,Light Snow Showers,10,2013-05-18 23:00:00
8:50 PM,35.6,28.4,75,30.37,15.0,North,15.0,-,N/A,,Overcast,10,2013-05-18 23:50:00
9:00 PM,35,28,67,30.38,15,North,15.0,,,Snow,Light Snow Showers,10,2013-05-19 00:00:00
9:00 PM,35.6,28.4,75,30.38,15.0,North,15.0,20.7,N/A,,Overcast,360,2013-05-19 00:00:00
10:00 PM,35.6,28.4,75,30.39,15.0,North,13.8,-,N/A,,Overcast,10,2013-05-19 01:00:00
11:00 PM,33.8,26.6,75,30.37,15.0,NNE,16.1,-,N/A,,Overcast,30,2013-05-19 02:00:00